Back to catalog

SL-12 R/B(2)

AliveGEO
NORAD 20110·ROCKET BODY·🇷🇺 Russia

Launched Jul 5, 1989 from Baikonur Cosmodrome

Loading…

TLE

FreshSource: Space-Track

Epoch: Sep 13, 2026, 17:35 UTC

1 20110U 89052D   26256.73288786 -.00000191  00000-0  00000-0 0  9990
2 20110  10.5407 327.9198 0034149 278.4389  75.6810  1.03061461139893

Track SL-12 R/B(2) in real time with AllMySat

Download on the App Store